[[{"header":{"parameterUnit":"m.s-1","parameterCategory":1,"la1":30.2991,"la2":30.254,"lo1":-89.0895,"lo2":-89.0444,"dy":0.0017,"dx":0.0017,"nx":28,"ny":28,"refTime":"2024-09-30T03:00:00:Z","depth":0,"parameterNumber":2,"parameterNumberName":"U-component_of_WINDS"},"data":[0,0,0,0,0,0,0,0,0,0,0,0,0,0,0,0,0,0,0,0,0,0,0,0,0,0,0,0,0,0,0,0,0,0,0,0,0,0,0,0,0,0,0,0,0,0,0,0,0,0,0,0,0,0,0,0,0,0,-2.4528,-2.4528,0,-2.4495,-2.4495,-2.4495,-2.4431,-2.443,-2.4429,-2.4428,-2.4396,-2.4396,-2.4396,0,0,0,0,0,0,0,0,0,0,0,0,0,-2.4537,-2.4538,-2.4528,-2.4528,-2.4527,-2.4495,-2.4495,-2.4494,-2.4431,-2.443,-2.4428,-2.4427,-2.4396,-2.4396,-2.4396,0,0,0,0,0,0,0,0,0,0,0,0,0,-2.4522,-2.4538,-2.4528,-2.4492,-2.4488,-2.4495,-2.4495,-2.4494,-2.4432,-2.443,-2.4428,-2.4426,-2.4395,-2.4396,-2.4396,-2.4437,0,0,-2.4398,-2.4398,0,0,0,0,0,0,0,0,-2.4523,-2.4522,-2.4498,-2.4494,-2.449,-2.4465,-2.4486,-2.4475,-2.4432,-2.4453,-2.4428,-2.4425,-2.442,-2.4419,-2.4417,-2.4435,-2.4434,-2.4398,-2.4398,-2.4398,-2.4398,0,0,0,0,0,0,0,-2.4524,-2.4523,-2.4515,-2.4497,-2.4493,-2.4478,-2.4474,-2.4484,-2.4448,-2.4451,-2.4447,-2.4444,-2.4418,-2.4417,-2.4416,-2.4433,-2.4398,-2.4398,-2.4399,-2.4399,-2.4483,-2.4485,0,0,0,0,0,0,-2.453,-2.4524,-2.4516,-2.4514,-2.4502,-2.4479,-2.4474,-2.4475,-2.4447,-2.4441,-2.4445,-2.4441,-2.4417,-2.4415,-2.4414,-2.4459,-2.4398,-2.4399,-2.4399,-2.4481,-2.4484,-2.4486,0,0,0,0,0,0,-2.4531,-2.453,-2.4517,-2.4518,-2.4515,-2.4481,-2.4483,-2.4476,-2.4474,-2.4443,-2.4436,-2.445,-2.4415,-2.4414,-2.4431,-2.4457,-2.4399,-2.4399,-2.4479,-2.4482,-2.4485,-2.455,0,0,0,0,0,0,-2.4531,-2.4531,-2.4545,-2.4519,-2.4515,-2.4535,-2.4484,-2.4476,-2.4475,-2.4468,-2.4446,-2.444,-2.4413,-2.4431,-2.4432,-2.4457,-2.44,-2.4476,-2.448,-2.4484,-2.4545,-2.4554,-2.4562,0,0,0,0,0,-2.4532,-2.4565,-2.4546,-2.4546,-2.4532,-2.4536,-2.4534,-2.4503,-2.4477,-2.4491,-2.4472,-2.4441,-2.4455,-2.4433,-2.4434,-2.4459,-2.4475,-2.4479,-2.4483,-2.4541,-2.4553,-2.4562,0,0,0,0,0,0,-2.4596,-2.4561,-2.4539,-2.4565,-2.4554,-2.4526,-2.4543,-2.4516,-2.4512,-2.4507,-2.4468,-2.4464,-2.4487,-2.4475,-2.4452,-2.4497,-2.446,-2.4464,-2.4503,-2.4514,-2.4523,-2.4524,-2.44,0,0,0,0,0,-2.4613,-2.4618,-2.4588,-2.4613,-2.4609,-2.4577,-2.4578,-2.4554,-2.4541,-2.4537,-2.4518,-2.4507,-2.4509,-2.4511,-2.4511,-2.4544,-2.4537,-2.4561,-2.457,-2.4577,-2.4581,-2.4598,-2.4608,-2.45,-2.45,-2.45,0,0,-2.4648,-2.463,-2.4635,-2.4626,-2.4614,-2.4621,-2.4573,-2.4583,-2.4588,-2.4538,-2.4553,-2.454,-2.4525,-2.4551,-2.4561,-2.4541,-2.461,-2.4583,-2.4589,-2.4589,-2.4603,-2.4613,-2.4622,-2.4503,-2.4503,-2.4502,0,0,-2.4715,-2.4702,-2.4722,-2.4712,-2.4695,-2.4674,-2.4679,-2.4655,-2.4643,-2.4658,-2.4621,-2.4627,-2.4631,-2.4622,-2.4618,-2.4684,-2.4655,-2.4685,-2.473,-2.4746,-2.4755,-2.4762,-2.4785,-2.4794,-2.469,-2.469,-2.469,0,-2.4761,-2.4769,-2.4735,-2.4747,-2.4744,-2.4699,-2.4719,-2.4711,-2.4696,-2.4695,-2.4674,-2.4678,-2.4665,-2.4688,-2.4704,-2.4702,-2.4707,-2.4687,-2.4756,-2.4763,-2.477,-2.4791,-2.48,-2.4694,-2.4693,-2.4693,-2.4692,0,-2.4827,-2.4833,-2.4851,-2.4837,-2.4836,-2.4852,-2.4821,-2.4824,-2.4801,-2.4783,-2.4799,-2.4782,-2.4778,-2.4782,-2.476,-2.4801,-2.479,-2.4763,-2.4725,-2.4784,-2.4803,-2.4811,-2.4699,-2.4697,-2.4696,-2.4695,0,0,-2.4932,-2.4899,-2.4906,-2.4899,-2.4878,-2.4883,-2.4898,-2.4893,-2.4896,-2.4888,-2.4899,-2.4904,-2.4879,-2.4875,-2.4852,-2.4866,-2.4919,-2.4837,-2.4837,-2.4852,-2.4963,-2.4982,-2.4992,-2.49,-2.4902,-2.4903,-2.4964,0,-2.4994,-2.5015,-2.4985,-2.5014,-2.5019,-2.4978,-2.499,-2.4979,-2.4963,-2.4966,-2.4948,-2.4951,-2.4919,-2.4916,-2.4928,-2.491,-2.494,-2.4905,-2.491,-2.491,-2.4913,-2.5002,-2.5023,-2.5081,-2.4971,-2.4972,-2.4973,0,-2.5068,-2.5063,-2.5092,-2.5069,-2.5071,-2.5082,-2.5076,-2.5079,-2.5066,-2.5053,-2.5049,-2.5022,-2.5035,-2.4999,-2.5016,-2.4993,-2.4993,-2.4985,-2.4986,-2.4984,-2.4944,-2.5002,-2.5099,-2.5107,-2.4985,-2.4984,-2.4983,0,-2.5141,-2.5141,-2.5158,-2.5154,-2.5129,-2.5138,-2.5128,-2.5113,-2.5112,-2.5107,-2.5106,-2.5104,-2.5102,-2.51,-2.5073,-2.5049,-2.5094,-2.5055,-2.5083,-2.5084,-2.5093,-2.5093,-2.519,-2.5096,-2.5096,-2.5095,-2.5095,0,-2.5212,-2.5232,-2.5191,-2.5201,-2.5222,-2.5188,-2.5209,-2.5195,-2.5183,-2.519,-2.5155,-2.5163,-2.5127,-2.5131,-2.511,-2.5127,-2.5127,-2.5117,-2.5111,-2.5119,-2.5121,-2.5118,-2.5113,-2.5098,-2.5097,-2.5097,-2.5096,0,-2.5296,-2.527,-2.5286,-2.5261,-2.5255,-2.5271,-2.525,-2.5259,-2.524,-2.525,-2.5251,-2.5222,-2.5225,-2.5198,-2.5196,-2.5182,-2.5209,-2.5197,-2.5213,-2.5209,-2.5238,-2.5235,-2.5337,-2.5348,-2.5247,-2.5248,-2.5249,0,-2.5343,-2.5356,-2.5333,-2.5335,-2.5327,-2.5331,-2.533,-2.5298,-2.5299,-2.5286,-2.5297,-2.5297,-2.5295,-2.5302,-2.5282,-2.528,-2.5267,-2.5303,-2.5266,-2.5274,-2.5266,-2.5265,-2.5266,-2.531,-2.5311,-2.5312,-2.5313,0,-2.5428,-2.5415,-2.5414,-2.541,-2.541,-2.5405,-2.5398,-2.5402,-2.5368,-2.537,-2.5373,-2.5372,-2.537,-2.5371,-2.5366,-2.5356,-2.5329,-2.5325,-2.5331,-2.5339,-2.5348,-2.5342,-2.5233,-2.5322,-2.5321,-2.5321,-2.532,-2.532,-2.5494,-2.5504,-2.5489,-2.549,-2.5482,-2.5476,-2.5483,-2.5466,-2.5467,-2.5463,-2.5445,-2.5451,-2.5438,-2.5428,-2.5421,-2.5426,-2.5409,-2.5418,-2.542,-2.5422,-2.5427,-2.5348,-2.5425,-2.5425,-2.5424,-2.5424,-2.5424,0,-2.5576,-2.5565,-2.5567,-2.5558,-2.5559,-2.5534,-2.5525,-2.5528,-2.5533,-2.5524,-2.5523,-2.5526,-2.5527,-2.5507,-2.5505,-2.5513,-2.55,-2.5513,-2.5512,-2.551,-2.5443,-2.5437,-2.5523,-2.5523,-2.5523,-2.5523,-2.5523,-2.5523,-2.5619,-2.5635,-2.562,-2.5632,-2.562,-2.5625,-2.5622,-2.5617,-2.5609,-2.5615,-2.5615,-2.5602,-2.5588,-2.5585,-2.5585,-2.5579,-2.558,-2.5597,-2.5587,-2.5524,-2.5515,-2.5505,-2.55,-2.5598,-2.5598,-2.5653,-2.5654,-2.5654]},{"header":{"parameterUnit":"m.s-1","parameterCategory":1,"la1":30.2991,"la2":30.254,"lo1":-89.0895,"lo2":-89.0444,"dy":0.0017,"dx":0.0017,"nx":28,"ny":28,"refTime":"2024-09-30T03:00:00:Z","depth":0,"parameterNumber":3,"parameterNumberName":"V-component_of_WINDS"},"data":[0,0,0,0,0,0,0,0,0,0,0,0,0,0,0,0,0,0,0,0,0,0,0,0,0,0,0,0,0,0,0,0,0,0,0,0,0,0,0,0,0,0,0,0,0,0,0,0,0,0,0,0,0,0,0,0,0,0,-0.722,-0.722,0,-0.7217,-0.7217,-0.7216,-0.7209,-0.7209,-0.7209,-0.7209,-0.7206,-0.7206,-0.7206,0,0,0,0,0,0,0,0,0,0,0,0,0,-0.7222,-0.7222,-0.722,-0.722,-0.722,-0.7217,-0.7217,-0.7216,-0.7209,-0.7209,-0.7209,-0.7209,-0.7206,-0.7206,-0.7206,0,0,0,0,0,0,0,0,0,0,0,0,0,-0.722,-0.7222,-0.722,-0.7216,-0.7215,-0.7217,-0.7217,-0.7216,-0.7209,-0.7209,-0.7209,-0.7208,-0.7206,-0.7206,-0.7206,-0.7212,0,0,-0.7207,-0.7207,0,0,0,0,0,0,0,0,-0.722,-0.722,-0.7216,-0.7216,-0.7216,-0.7213,-0.7216,-0.7215,-0.7209,-0.7211,-0.7209,-0.7208,-0.7209,-0.7208,-0.7208,-0.7211,-0.7211,-0.7207,-0.7207,-0.7207,-0.7207,0,0,0,0,0,0,0,-0.722,-0.722,-0.7219,-0.7216,-0.7216,-0.7215,-0.7214,-0.7216,-0.7211,-0.7211,-0.7211,-0.721,-0.7208,-0.7208,-0.7208,-0.7211,-0.7207,-0.7207,-0.7207,-0.7207,-0.7221,-0.7221,0,0,0,0,0,0,-0.7221,-0.722,-0.7219,-0.7218,-0.7217,-0.7215,-0.7214,-0.7214,-0.7211,-0.7211,-0.7211,-0.721,-0.7208,-0.7208,-0.7208,-0.7216,-0.7207,-0.7207,-0.7207,-0.722,-0.7221,-0.7221,0,0,0,0,0,0,-0.7221,-0.7221,-0.7219,-0.7219,-0.7219,-0.7215,-0.7215,-0.7214,-0.7214,-0.7211,-0.721,-0.7211,-0.7208,-0.7208,-0.7211,-0.7215,-0.7207,-0.7207,-0.722,-0.722,-0.7221,-0.723,0,0,0,0,0,0,-0.7221,-0.7221,-0.7222,-0.7219,-0.7219,-0.7221,-0.7215,-0.7214,-0.7214,-0.7213,-0.7211,-0.7211,-0.7208,-0.7211,-0.7211,-0.7215,-0.7207,-0.722,-0.722,-0.7221,-0.7229,-0.723,-0.7231,0,0,0,0,0,-0.7221,-0.7224,-0.7222,-0.7222,-0.722,-0.7221,-0.7221,-0.7218,-0.7214,-0.7216,-0.7215,-0.7211,-0.7215,-0.7211,-0.7212,-0.7216,-0.7219,-0.722,-0.7221,-0.7228,-0.723,-0.7231,0,0,0,0,0,0,-0.7228,-0.7224,-0.7221,-0.7224,-0.7223,-0.722,-0.7222,-0.7219,-0.7219,-0.7219,-0.7215,-0.7214,-0.7218,-0.7217,-0.7214,-0.7222,-0.7217,-0.7217,-0.7222,-0.7224,-0.7225,-0.7226,-0.7207,0,0,0,0,0,-0.7229,-0.723,-0.7227,-0.723,-0.7229,-0.7226,-0.7226,-0.7224,-0.7223,-0.7222,-0.7221,-0.722,-0.7222,-0.7223,-0.7224,-0.7229,-0.7229,-0.7232,-0.7233,-0.7234,-0.7235,-0.7239,-0.7241,-0.7223,-0.7223,-0.7223,0,0,-0.7233,-0.7231,-0.7232,-0.7231,-0.723,-0.7232,-0.7226,-0.7227,-0.7229,-0.7223,-0.7226,-0.7225,-0.7224,-0.7229,-0.7231,-0.7228,-0.724,-0.7235,-0.7236,-0.7236,-0.724,-0.7242,-0.7244,-0.7224,-0.7224,-0.7224,0,0,-0.7241,-0.7239,-0.7242,-0.7241,-0.724,-0.7238,-0.7239,-0.7237,-0.7236,-0.7239,-0.7235,-0.7237,-0.7239,-0.7239,-0.724,-0.7249,-0.7246,-0.725,-0.7257,-0.7261,-0.7262,-0.7264,-0.7269,-0.727,-0.7251,-0.7251,-0.7251,0,-0.7246,-0.7247,-0.7243,-0.7246,-0.7246,-0.7241,-0.7245,-0.7244,-0.7244,-0.7245,-0.7241,-0.7245,-0.7244,-0.725,-0.7252,-0.7252,-0.7254,-0.725,-0.7262,-0.7264,-0.7265,-0.7269,-0.7271,-0.7251,-0.7251,-0.7251,-0.7251,0,-0.7254,-0.7256,-0.7258,-0.7258,-0.7259,-0.7261,-0.7259,-0.726,-0.7258,-0.7257,-0.7261,-0.726,-0.7261,-0.7262,-0.726,-0.7268,-0.7267,-0.7263,-0.7258,-0.7267,-0.7271,-0.7273,-0.7252,-0.7252,-0.7251,-0.7251,0,0,-0.7265,-0.7264,-0.7265,-0.7266,-0.7265,-0.7266,-0.727,-0.7271,-0.7273,-0.7273,-0.7277,-0.7279,-0.7276,-0.7277,-0.7275,-0.7278,-0.7288,-0.7274,-0.7274,-0.7278,-0.7299,-0.7302,-0.7304,-0.7286,-0.7286,-0.7287,-0.73,0,-0.7273,-0.7278,-0.7276,-0.7282,-0.7284,-0.728,-0.7283,-0.7284,-0.7283,-0.7285,-0.7285,-0.7287,-0.7282,-0.7283,-0.7287,-0.7286,-0.7292,-0.7285,-0.729,-0.7291,-0.7292,-0.7306,-0.731,-0.7322,-0.7301,-0.7301,-0.7301,0,-0.7283,-0.7284,-0.729,-0.7291,-0.7292,-0.7294,-0.7297,-0.7299,-0.73,-0.7299,-0.7301,-0.7298,-0.7303,-0.7297,-0.7304,-0.7299,-0.7301,-0.7302,-0.7302,-0.7303,-0.7297,-0.7309,-0.7325,-0.7328,-0.7304,-0.7304,-0.7303,0,-0.7291,-0.7295,-0.7299,-0.73,-0.73,-0.7303,-0.7303,-0.7304,-0.7305,-0.7308,-0.7309,-0.7311,-0.7313,-0.7316,-0.7315,-0.731,-0.7322,-0.7316,-0.7323,-0.7323,-0.7326,-0.7326,-0.7344,-0.7326,-0.7326,-0.7326,-0.7326,0,-0.7301,-0.7305,-0.7303,-0.7306,-0.7312,-0.7309,-0.7315,-0.7315,-0.7316,-0.732,-0.7316,-0.732,-0.7318,-0.7322,-0.7321,-0.7328,-0.7328,-0.7329,-0.7329,-0.7329,-0.733,-0.7331,-0.7331,-0.7326,-0.7326,-0.7326,-0.7326,0,-0.7311,-0.731,-0.7315,-0.7316,-0.7316,-0.732,-0.7321,-0.7324,-0.7324,-0.7329,-0.733,-0.7329,-0.7334,-0.7333,-0.7338,-0.7337,-0.7347,-0.7345,-0.7346,-0.7346,-0.7353,-0.7353,-0.7374,-0.7377,-0.7356,-0.7356,-0.7356,0,-0.7318,-0.7321,-0.7323,-0.7325,-0.7326,-0.7329,-0.7331,-0.733,-0.7332,-0.7335,-0.7338,-0.7343,-0.7346,-0.7354,-0.7354,-0.7359,-0.7358,-0.7365,-0.7358,-0.736,-0.7359,-0.736,-0.7361,-0.7366,-0.7366,-0.7367,-0.7367,0,-0.733,-0.7329,-0.7332,-0.7336,-0.7339,-0.7341,-0.7344,-0.7346,-0.7345,-0.7348,-0.7353,-0.7356,-0.7361,-0.7366,-0.7371,-0.7372,-0.737,-0.7369,-0.7371,-0.7372,-0.7374,-0.7375,-0.7351,-0.7368,-0.7368,-0.7368,-0.7368,-0.7368,-0.7339,-0.7343,-0.7345,-0.7349,-0.7351,-0.7353,-0.7357,-0.7358,-0.7362,-0.7366,-0.7365,-0.7371,-0.7374,-0.738,-0.7382,-0.7387,-0.7385,-0.7387,-0.7388,-0.7389,-0.7391,-0.7372,-0.7388,-0.7388,-0.7388,-0.7388,-0.7388,0,-0.7352,-0.7353,-0.7357,-0.7361,-0.7365,-0.7363,-0.7366,-0.7369,-0.7374,-0.7377,-0.7381,-0.7388,-0.7393,-0.7395,-0.74,-0.7405,-0.7404,-0.7406,-0.7406,-0.7407,-0.7392,-0.739,-0.7407,-0.7407,-0.7407,-0.7407,-0.7407,-0.7407,-0.7359,-0.7365,-0.7366,-0.7374,-0.7376,-0.7382,-0.7384,-0.7387,-0.739,-0.7397,-0.7402,-0.7403,-0.7406,-0.7412,-0.7418,-0.7418,-0.7421,-0.7424,-0.7424,-0.741,-0.7408,-0.7406,-0.7405,-0.7424,-0.7424,-0.7439,-0.7439,-0.7439]}]]